User: anonymous   Login
Location: Bailleul
(50.3375°N, 2.8513°E)
Time: 07:56:47
(UTC+00:00)
Language:

Cosmos 1459 Rocket - Orbit

View from above orbital plane
View from above orbital plane
View from above satellite
View from above satellite

Ground track
Ground track

The orbit data is extracted from the following two-line orbital elements,

1 14059U 83042B   21266.18883633  .00000060  00000-0  43640-4 0  9990
2 14059  82.9755 344.6477 0042122 206.1179 153.7855 13.78741324930566
Epoch (UTC): 23 September 2021 04:31:55
Eccentricity: 0.0042122
inclination: 82.9755°
perigee height: 937 km
apogee height: 999 km
right ascension of ascending node: 344.6477°
argument of perigee: 206.1179°
revolutions per day: 13.78741324
mean anomaly at epoch: 153.7855°
orbit number at epoch: 93056

The dashed part of the orbit path shows where the satellite is in the earth's shadow,  

DLR